UWE-4

Last updated on Mon Nov 03 2025 00:03:21 GMT+0000 (Coordinated Universal Time)

1 43880U 18111E 25306.23001933 .00023381 00000+0 76315-3 0 9993 2 43880 97.5831 221.7229 0013338 63.0160 297.2442 15.31691845375870
UTC large
Height (km)
Speed (km/s)
/
Latitude / Longitude
Inclination (degrees)
Orbital Period (minutes)
Azimuth
Elevation
Range (km)
Doppler Factor

Next 0 passes for location: London (51.5072 / 0.1276)

Sorry there are no passes over London.